Meteo Giornale » Osservazioni meteo Italia » Catania-Fontanarossa

ore: 14:50 - Osservazioni Meteo Catania-Fontanarossa
Lat. 37° 28' N Lon. 15° 3' E Alt. 11 metri s.l.m.

nuvoloso Europe/Rome

15 °C

Nuvoloso

Temp. 24 Ore

11 °C

16 °C

Est

13 Km/h

Dew point 7 °C

Umidità 58 %

Visibilità  10 Km

Il sole sorge alle ore 06:48

Il sole tramonta alle ore 19:20

Data e Ora Cielo e Fenomeni T °C DP °C Um. % Pres. hPa Vis. km Vento km/h
Oggi h: 14:50 nuvoloso Nuvoloso 15 7 58 1019 10 E 13
Oggi h: 14:20 nuvoloso Nuvoloso 15 7 58 1019 10 E/NE 16.7
Oggi h: 13:50 molto_nuvoloso Molto Nuvoloso 15 7 58 1019 10 E/NE 13
Oggi h: 13:20 nuvoloso Nuvoloso 14 7 62 1020 10 E/NE 13
Oggi h: 12:50 molto_nuvoloso Molto Nuvoloso 13 7 66 1020 10 E 14.8
Oggi h: 12:20 coperto_pioggia Pioggia Debole 13 8 71 1020 10 E/NE 16.7
Oggi h: 11:50 molto_nuvoloso Molto Nuvoloso 13 8 71 1020 10 E 11.1
Oggi h: 11:20 molto_nuvoloso Molto Nuvoloso 13 8 71 1020 10 O 7.4
Oggi h: 10:50 molto_nuvoloso Molto Nuvoloso 13 8 71 1020 10 N 5.5
Oggi h: 10:20 molto_nuvoloso Molto Nuvoloso 12 9 81 1019 10 O/NO 7.4
Oggi h: 09:50 coperto_pioggia Pioggia 11 9 87 1019 10 O/NO 11.1
Oggi h: 09:20 nuvoloso Nuvoloso 12 9 81 1019 10 O 9.3
Oggi h: 08:50 nuvoloso Nuvoloso 13 9 76 1019 10 O 9.3
Oggi h: 08:20 nuvoloso Nuvoloso 13 8 71 1018 9 N 5.5
Oggi h: 07:50 molto_nuvoloso Molto Nuvoloso 12 9 81 1019 9 E/NE 16.7
Oggi h: 07:20 coperto_pioggia Pioviggine 11 8 81 1018 9 E/NE 14.8
Oggi h: 06:50 coperto_pioggia Pioviggine 11 8 81 1018 9 E/NE 18.5
Oggi h: 06:20 coperto_pioggia Pioggia Debole 11 8 81 1018 10 E/NE 24
Oggi h: 05:50 coperto_pioggia Pioggia 11 9 87 1017 8 N/NE 24
Oggi h: 05:20 nuvoloso Nuvoloso 11 9 87 1017 10 NE 22.2
Oggi h: 04:50 nuvoloso Nuvoloso 11 9 87 1017 10 NE 14.8
Oggi h: 04:20 nuvoloso Nuvoloso 11 8 81 1017 10 E 9.3
Oggi h: 03:50 nuvoloso Nuvoloso 11 8 81 1017 10 E/SE 7.4
Oggi h: 03:20 nuvoloso Nuvoloso 12 9 81 1018 10 N/NE 16.7
Oggi h: 02:50 nuvoloso Nuvoloso 13 8 71 1018 10 N 13
Oggi h: 02:20 nuvoloso Nuvoloso 13 9 76 1017 10 NE 20.3
Oggi h: 01:50 nuvoloso Nuvoloso 13 8 71 1018 10 E/NE 20.3
Oggi h: 01:20 nuvoloso Nuvoloso 13 9 76 1018 10 NE 20.3
Oggi h: 00:50 nuvoloso Nuvoloso 13 9 76 1018 10 NE 18.5
Oggi h: 00:20 nuvoloso Nuvoloso 13 9 76 1018 10 NE 16.7
Ieri h: 23:50 nuvoloso Nuvoloso 13 9 76 1018 10 NE 16.7
Ieri h: 23:20 nuvoloso Nuvoloso 13 9 76 1018 10 E/NE 13
Ieri h: 22:50 nuvoloso Nuvoloso 14 10 76 1018 10 E/NE 13
Ieri h: 22:20 nuvoloso Nuvoloso 14 10 76 1018 10 E/NE 13
Ieri h: 21:50 molto_nuvoloso Molto Nuvoloso 14 10 76 1018 10 E/NE 14.8
Ieri h: 21:20 molto_nuvoloso Molto Nuvoloso 15 10 72 1018 10 E/NE 16.7
Ieri h: 20:50 molto_nuvoloso Molto Nuvoloso 15 10 72 1018 10 E/NE 16.7
Ieri h: 20:20 molto_nuvoloso Molto Nuvoloso 15 10 72 1018 10 E/NE 16.7
Ieri h: 19:50 molto_nuvoloso Molto Nuvoloso 15 10 72 1018 10 E/NE 14.8
Ieri h: 19:20 molto_nuvoloso Molto Nuvoloso 14 10 76 1018 10 E/NE 14.8
Ieri h: 18:50 molto_nuvoloso Molto Nuvoloso 14 10 76 1017 10 E 14.8
Ieri h: 18:20 molto_nuvoloso Molto Nuvoloso 15 10 72 1017 10 E 20.3
Ieri h: 17:50 nuvoloso Nuvoloso 15 10 72 1017 10 E 20.3
Ieri h: 17:20 nuvoloso Nuvoloso 16 10 67 1017 10 E 22.2
Ieri h: 16:50 nuvoloso Nuvoloso 16 10 67 1017 10 E 22.2
Ieri h: 16:20 sereno Sereno 16 8 58 1017 10 E 22.2
Ieri h: 15:50 sereno Sereno 16 7 55 1017 10 E 22.2